Regional Weather Roundup
Issued by NWS Glasgow, MT

Home | Current Version | Previous Version | Text Only | Print | Product List | Glossary On
Versions: 1 2 3 4 5 6 7 8 9 10 11 12 13 14 15 16 17 18 19 20 21 22 23 24 25 26 27 28 29 30 31 32 33 34 35 36 37 38 39 40 41 42 43 44 45 46 47 48 49 50
000
ASUS45 KGGW 240615
RWRGGW
HOURLY REGIONAL WEATHER ROUNDUP FOR NORTHEAST MONTANA
NATIONAL WEATHER SERVICE GLASGOW MONTANA
1100 PM MST MON JAN 23 2017

NOTE: "FAIR" INDICATES FEW OR NO CLOUDS BELOW 12,000 FEET WITH NO
SIGNIFICANT WEATHER AND/OR OBSTRUCTIONS TO VISISBILITY.

NORTHEAST MONTANA


CITY           SKY/WX    TMP DP  RH WIND       PRES   REMARKS
GLASGOW        CLOUDY    20  16  84 NW7       29.84S
6HR MIN TEMP:  20; 6HR MAX TEMP:  23;

PLENTYWOOD       N/A     21  19  92 NW7         N/A
WOLF POINT     CLOUDY    23  17  78 W3        29.86S
JORDAN           N/A     23  19  85 N3        29.83R
WINNETT          N/A     23  20  88 NW9         N/A
SIDNEY         CLOUDY    22  20  92 CALM      29.85
GLENDIVE       MIX PCPN  22  20  92 CALM      29.83R FOG
MALTA            N/A     22  21  96 W3          N/A
SCOBEY           N/A     19  11  70 CALM      29.81S

FORT PECK REPORTS


CITY           SKY/WX    TMP DP  RH WIND       PRES   REMARKS
FORT PECK        N/A     22  19  89 NW8         N/A
THE PINES        N/A     23  21  92 CALM        N/A

SOUTHEAST MONTANA


CITY           SKY/WX    TMP DP  RH WIND       PRES   REMARKS
BILLINGS       FLURRIES  24  21  88 NE3       29.77R
MILES CITY     CLOUDY    23  20  88 W3        29.81R
BAKER          CLOUDY    21  19  92 SE5       29.79R FOG
LIVINGSTON     LGT SNOW  22  18  85 E10       29.70S FOG

CENTRAL MONTANA


CITY           SKY/WX    TMP DP  RH WIND       PRES   REMARKS
HAVRE          CLOUDY    21  18  88 SW7       29.85S
LEWISTOWN      CLOUDY    18  16  92 NW7       29.78R FOG
GREAT FALLS    FOG       17  16  95 NW5       29.84R VSB 1/2
CUT BANK       CLOUDY     5   3  91 W7        29.81S
HELENA         CLOUDY    22  16  78 W8        29.79S
BUTTE          CLOUDY    17  10  74 CALM      29.69R
BOZEMAN        CLOUDY    21  19  92 N5        29.71S

WESTERN MONTANA


CITY           SKY/WX    TMP DP  RH WIND       PRES   REMARKS
MISSOULA       CLOUDY    29  24  82 CALM      29.79S
KALISPELL      NOT AVBL

NORTH DAKOTA


CITY           SKY/WX    TMP DP  RH WIND       PRES   REMARKS
WILLISTON      CLOUDY    22  19  89 W8        29.84S
DICKINSON      CLOUDY    23  21  92 NW6       29.77S FOG
MINOT          CLOUDY    24  18  77 W12       29.81R
BISMARCK       CLOUDY    29  25  85 W3        29.84R

SOUTHERN SASKATCHEWAN


CITY           SKY/WX    TMP DP  RH WIND       PRES   REMARKS
REGINA         CLOUDY    16  12  86 NW14      29.82R
ESTEVAN        FLURRIES  19  18  93 NW10      29.80R
SWIFT CURRENT  FLURRIES  10   9  92 NW9       29.80S




USA.gov is the U.S. government's official web portal to all federal, state and local government web resources and services.